TimeCDT,TemperatureF,Dew PointF,Humidity,Sea Level PressureIn,VisibilityMPH,Wind Direction,Wind SpeedMPH,Gust SpeedMPH,PrecipitationIn,Events,Conditions,WindDirDegrees,DateUTC
12:15 AM,37.4,28.4,70,30.08,10.0,NW,12.7,-,N/A,,Overcast,320,2013-04-24 05:15:00
12:35 AM,35.6,28.4,75,30.09,10.0,NW,11.5,-,N/A,,Overcast,320,2013-04-24 05:35:00
12:55 AM,35.6,28.4,75,30.08,10.0,NW,11.5,-,N/A,,Overcast,320,2013-04-24 05:55:00
1:15 AM,35.6,28.4,75,30.09,10.0,NW,12.7,-,N/A,,Overcast,320,2013-04-24 06:15:00
1:35 AM,35.6,28.4,75,30.08,10.0,NW,11.5,-,N/A,,Overcast,320,2013-04-24 06:35:00
1:55 AM,35.6,28.4,75,30.09,10.0,NW,12.7,-,N/A,,Overcast,310,2013-04-24 06:55:00
2:15 AM,35.6,28.4,75,30.09,10.0,NW,13.8,-,N/A,,Overcast,320,2013-04-24 07:15:00
2:35 AM,33.8,28.4,81,30.08,10.0,NW,13.8,-,N/A,,Overcast,320,2013-04-24 07:35:00
2:55 AM,33.8,26.6,75,30.08,10.0,NW,13.8,19.6,N/A,,Overcast,320,2013-04-24 07:55:00
3:15 AM,33.8,26.6,75,30.08,10.0,NW,15.0,-,N/A,,Overcast,320,2013-04-24 08:15:00
3:35 AM,33.8,26.6,75,30.08,10.0,NW,13.8,20.7,N/A,,Overcast,320,2013-04-24 08:35:00
3:55 AM,33.8,26.6,75,30.08,10.0,NW,12.7,-,N/A,,Overcast,320,2013-04-24 08:55:00
4:15 AM,33.8,28.4,81,30.09,10.0,NW,12.7,-,N/A,,Overcast,320,2013-04-24 09:15:00
4:35 AM,33.8,28.4,81,30.09,10.0,NW,11.5,-,N/A,,Overcast,310,2013-04-24 09:35:00
5:15 AM,32.0,28.4,87,30.10,10.0,NW,8.1,-,N/A,,Overcast,310,2013-04-24 10:15:00
5:35 AM,32.0,26.6,80,30.11,10.0,NW,10.4,-,N/A,,Mostly Cloudy,310,2013-04-24 10:35:00
5:55 AM,32.0,26.6,80,30.11,10.0,WNW,8.1,-,N/A,,Mostly Cloudy,300,2013-04-24 10:55:00
6:15 AM,32.0,26.6,80,30.12,10.0,WNW,9.2,-,N/A,,Partly Cloudy,300,2013-04-24 11:15:00
6:35 AM,32.0,26.6,80,30.13,10.0,WNW,9.2,-,N/A,,Clear,300,2013-04-24 11:35:00
6:55 AM,32.0,26.6,80,30.14,10.0,WNW,8.1,-,N/A,,Clear,300,2013-04-24 11:55:00
7:15 AM,32.0,26.6,80,30.14,-9999.0,WNW,10.4,-,N/A,,Clear,290,2013-04-24 12:15:00
7:35 AM,32.0,26.6,80,30.15,10.0,WNW,10.4,-,N/A,,Clear,290,2013-04-24 12:35:00
7:55 AM,32.0,26.6,80,30.15,10.0,WNW,11.5,-,N/A,,Clear,300,2013-04-24 12:55:00
8:15 AM,33.8,26.6,75,30.16,10.0,WNW,11.5,17.3,N/A,,Clear,300,2013-04-24 13:15:00
8:35 AM,33.8,26.6,75,30.16,10.0,WNW,12.7,-,N/A,,Clear,300,2013-04-24 13:35:00
8:55 AM,35.6,28.4,75,30.16,10.0,WNW,13.8,-,N/A,,Clear,300,2013-04-24 13:55:00
9:15 AM,35.6,28.4,75,30.16,10.0,WNW,12.7,-,N/A,,Clear,300,2013-04-24 14:15:00
9:35 AM,37.4,28.4,70,30.17,10.0,NW,11.5,-,N/A,,Clear,310,2013-04-24 14:35:00
9:55 AM,37.4,28.4,70,30.16,10.0,WNW,11.5,-,N/A,,Scattered Clouds,290,2013-04-24 14:55:00
10:15 AM,37.4,28.4,70,30.16,10.0,WNW,15.0,20.7,N/A,,Mostly Cloudy,290,2013-04-24 15:15:00
10:55 AM,39.2,28.4,65,30.16,10.0,WNW,13.8,-,N/A,,Partly Cloudy,290,2013-04-24 15:55:00
11:15 AM,41.0,28.4,61,30.16,10.0,WNW,12.7,19.6,N/A,,Partly Cloudy,290,2013-04-24 16:15:00
11:35 AM,41.0,28.4,61,30.15,10.0,WNW,12.7,-,N/A,,Clear,300,2013-04-24 16:35:00
11:55 AM,42.8,26.6,53,30.15,10.0,NW,10.4,-,N/A,,Clear,310,2013-04-24 16:55:00
12:15 PM,42.8,26.6,53,30.15,10.0,West,13.8,-,N/A,,Clear,270,2013-04-24 17:15:00
12:35 PM,44.6,26.6,49,30.15,10.0,West,10.4,18.4,N/A,,Clear,280,2013-04-24 17:35:00
12:55 PM,46.4,30.2,53,30.14,10.0,WNW,10.4,19.6,N/A,,Clear,300,2013-04-24 17:55:00
1:15 PM,46.4,28.4,50,30.14,10.0,West,12.7,18.4,N/A,,Clear,280,2013-04-24 18:15:00
1:35 PM,46.4,28.4,50,30.14,10.0,WSW,10.4,18.4,N/A,,Clear,250,2013-04-24 18:35:00
1:55 PM,48.2,28.4,46,30.13,10.0,WNW,11.5,18.4,N/A,,Clear,300,2013-04-24 18:55:00
2:15 PM,48.2,26.6,43,30.13,10.0,West,8.1,18.4,N/A,,Clear,260,2013-04-24 19:15:00
2:35 PM,48.2,28.4,46,30.13,10.0,WNW,9.2,18.4,N/A,,Clear,290,2013-04-24 19:35:00
2:55 PM,50.0,26.6,40,30.13,10.0,WNW,8.1,18.4,N/A,,Clear,300,2013-04-24 19:55:00
3:15 PM,50.0,26.6,40,30.12,10.0,West,11.5,-,N/A,,Clear,270,2013-04-24 20:15:00
3:35 PM,50.0,26.6,40,30.12,10.0,West,11.5,17.3,N/A,,Clear,260,2013-04-24 20:35:00
3:55 PM,51.8,26.6,38,30.11,10.0,West,9.2,25.3,N/A,,Clear,270,2013-04-24 20:55:00
4:15 PM,51.8,26.6,38,30.11,10.0,West,11.5,19.6,N/A,,Clear,260,2013-04-24 21:15:00
4:35 PM,53.6,28.4,38,30.11,10.0,WSW,11.5,17.3,N/A,,Clear,250,2013-04-24 21:35:00
4:55 PM,53.6,28.4,38,30.11,10.0,West,15.0,-,N/A,,Partly Cloudy,260,2013-04-24 21:55:00
5:15 PM,53.6,28.4,38,30.11,10.0,SW,15.0,21.9,N/A,,Clear,230,2013-04-24 22:15:00
5:35 PM,51.8,28.4,41,30.10,10.0,WSW,11.5,19.6,N/A,,Clear,240,2013-04-24 22:35:00
5:55 PM,53.6,26.6,35,30.11,10.0,West,13.8,-,N/A,,Clear,260,2013-04-24 22:55:00
6:15 PM,51.8,28.4,41,30.11,10.0,SW,15.0,-,N/A,,Clear,230,2013-04-24 23:15:00
6:35 PM,51.8,28.4,41,30.10,10.0,SW,12.7,19.6,N/A,,Clear,230,2013-04-24 23:35:00
6:55 PM,51.8,26.6,38,30.10,10.0,WSW,13.8,23.0,N/A,,Clear,240,2013-04-24 23:55:00
7:15 PM,51.8,26.6,38,30.10,10.0,WSW,15.0,21.9,N/A,,Clear,240,2013-04-25 00:15:00
7:35 PM,50.0,28.4,43,30.10,10.0,SW,10.4,18.4,N/A,,Clear,220,2013-04-25 00:35:00
7:55 PM,48.2,28.4,46,30.10,10.0,SW,11.5,-,N/A,,Clear,220,2013-04-25 00:55:00
8:15 PM,48.2,28.4,46,30.11,10.0,SW,10.4,-,N/A,,Clear,230,2013-04-25 01:15:00
8:35 PM,46.4,30.2,53,30.11,10.0,SW,11.5,-,N/A,,Clear,230,2013-04-25 01:35:00
8:55 PM,44.6,28.4,53,30.11,10.0,SSW,8.1,-,N/A,,Clear,210,2013-04-25 01:55:00
10:15 PM,44.6,28.4,53,30.13,10.0,SSW,12.7,-,N/A,,Partly Cloudy,210,2013-04-25 03:15:00
10:35 PM,42.8,30.2,61,30.13,10.0,SSW,9.2,-,N/A,,Mostly Cloudy,200,2013-04-25 03:35:00
10:55 PM,44.6,28.4,53,30.13,10.0,SSW,13.8,19.6,N/A,,Mostly Cloudy,210,2013-04-25 03:55:00
11:15 PM,44.6,30.2,57,30.13,10.0,SW,21.9,27.6,N/A,,Overcast,230,2013-04-25 04:15:00
11:35 PM,44.6,33.8,66,30.14,10.0,West,13.8,20.7,N/A,Rain,Light Rain,270,2013-04-25 04:35:00
11:55 PM,44.6,35.6,71,30.14,10.0,West,11.5,18.4,N/A,,Light Drizzle,270,2013-04-25 04:55:00